{"data":{"norad_id":58020,"intl_designator":"2023-155E","name":"NESS","alt_names":[],"object_type":"PAYLOAD","status":"ACTIVE","operator":null,"country":"FR","launch_date":"2023-10-09","launch_site_code":"FRGUI","launch_vehicle":null,"mission":null,"orbit_class":"UNKNOWN","rcs_meters":null,"size_class":null,"mass_kg":null,"dimensions":null,"purposes":[],"wikipedia_slug":null,"has_3d_model":false,"image_url":null,"decayed_at":null,"tle_current":{"epoch":"2026-05-25T04:16:19.188768Z","epoch_age_seconds":62957,"freshness":"FRESH","line1":"1 58020U 23155E   26145.17799987  .00016858  00000+0  59429-3 0  9995","line2":"2 58020  97.5907 230.4769 0004546 276.4482  83.6240 15.29340332144977","mean_motion":15.29340332,"eccentricity":0.0004546,"inclination_deg":97.5907,"raan_deg":230.4769,"arg_perigee_deg":276.4482,"mean_anomaly_deg":83.624,"bstar":0.00059429,"rev_number":14497,"period_min":94.158243908786,"perigee_km":474.66638413962,"apogee_km":480.89978668128,"semimajor_km":6855.9200854104,"source":"CELESTRAK","updated_at":"2026-05-25T13:38:00.426377Z"}}}